Tracking 30692 objects as of 16-Jun-2025
HD Live streaming from Space Station
objects crossing your sky now

OPS 9346 (IDSCS 25)

Track OPS 9346 (IDSCS 25) now!
OPS 9346 (IDSCS 25) is classified as:


NORAD ID: 3289
Int'l Code: 1968-050F
Perigee: 33,753.0 km
Apogee: 34,117.0 km
Inclination: 6.3 °
Period: 1,342.2 minutes
Semi major axis: 40306 km
RCS: 0.3981 m2 (medium)
Launch date: June 13, 1968
Source: United States (US)
Launch site: AIR FORCE EASTERN TEST RANGE (AFETR)
Your satellite tracking list
Your tracking list is empty




NASA's NSSDC Master Catalog

Two Line Element Set (TLE):
1 03289U 68050F   25166.47097765 -.00000052  00000-0  00000-0 0  9994
2 03289   6.3170  56.6509 0045152 128.4659  74.1342  1.07287234 46717
Source of the keplerian elements: AFSPC